User: anonymous   Login
Location: Buckland
(65.9785°N, 161.1281°W)
Time: 16:38:14
(UTC+00:00)
Language:

Transit 4A - Orbit

View from above orbital plane
View from above orbital plane
View from above satellite
View from above satellite

Ground track
Ground track

The orbit data is extracted from the following two-line orbital elements,

1 00116U 61015A   22336.85796090  .00000016  00000-0  71230-4 0  9995
2 00116  66.8077 171.8458 0069187 100.1934 260.6958 13.91860194116823
Epoch (UTC): 02 December 2022 20:35:27
Eccentricity: 0.0069187
inclination: 66.8077°
perigee height: 871 km
apogee height: 972 km
right ascension of ascending node: 171.8458°
argument of perigee: 100.1934°
revolutions per day: 13.91860194
mean anomaly at epoch: 260.6958°
orbit number at epoch: 11682

The dashed part of the orbit path shows where the satellite is in the earth's shadow,  

DLR